Palacios, TX

2:26 AM CDT on May 24, 2017 (GMT -0500)
Palacios Municipal

Weather History for KPSX - February, 2013

Change the Weather History Date:

Saturday, February 2, 2013

  Actual Average Record
Temperature  
Mean Temperature 62 °F -  
Max Temperature 73 °F 62 °F 86 °F (2006)
Min Temperature 51 °F 46 °F 13 °F (1951)
Degree Days  
Heating Degree Days 3    
Growing Degree Days 12 (Base 50)    
Moisture  
Dew Point 53 °F    
Average Humidity 81    
Maximum Humidity 94    
Minimum Humidity 50    
Precipitation  
Precipitation 0.00 in - - ()
Sea Level Pressure  
Sea Level Pressure 30.22 in    
Wind  
Wind Speed 5 mph (SE)    
Max Wind Speed 12 mph    
Max Gust Speed -    
Visibility 7 miles    
Events Fog    
Averages and records for this station are not official NWS values.
T = Trace of Precipitation, MM = Missing Value Source: NWS Daily Summary

Daily Weather History Graph

Daily Weather History Graph

Search for Another Location

Airport or City:

Trip Planner

Search our weather history database for the weather conditions in past years. The results will help you decide how hot, cold, wet, or windy it might be!

Date:

Astronomy

Feb. 02, 2013 Rise Set
Actual Time 7:12 AM CST 6:05 PM CST
Civil Twilight 6:47 AM CST 6:30 PM CST
Nautical Twilight 6:19 AM CST 6:58 PM CST
Astronomical Twilight 5:51 AM CST 7:26 PM CST
Moon No Moon Rise 11:01 AM CST (2/2)
Length of Visible Light 11h 42m
Length of Day
10h 52m
Waning Gibbous, 59% of the Moon is Illuminated
Feb 2
Waning Gibbous
Feb 3
Last Quarter
Feb 10
New
Feb 17
First Quarter
Feb 25
Full

Hourly Weather History & Observations

Time (CST) Temp. Dew Point Humidity Pressure Visibility Wind Dir Wind Speed Gust Speed Precip Events Conditions
12:53 AM 54.0 °F 50.0 °F 86% 30.22 in 10.0 mi ESE 5.8 mph - N/A   Clear
1:53 AM 52.0 °F 48.9 °F 89% 30.21 in 10.0 mi SE 5.8 mph - N/A   Clear
2:53 AM 53.6 °F 50.0 °F 88% 30.20 in 10.0 mi SE 5.8 mph - N/A   Clear
3:53 AM 54.0 °F 51.1 °F 90% 30.20 in 10.0 mi SE 4.6 mph - N/A   Clear
4:53 AM 54.0 °F 51.1 °F 90% 30.20 in 4.0 mi ESE 5.8 mph - N/A   Clear
5:53 AM 51.8 °F 50.0 °F 94% 30.21 in 5.0 mi East 3.5 mph - N/A   Clear
6:27 AM 53.6 °F 51.8 °F 94% 30.22 in 1.8 mi East 4.6 mph - N/A   Clear
6:41 AM 53.6 °F 51.8 °F 94% 30.22 in 3.0 mi East 4.6 mph - N/A   Clear
6:49 AM 53.6 °F 51.8 °F 94% 30.22 in 1.8 mi East 4.6 mph - N/A   Clear
6:53 AM 52.0 °F 50.0 °F 93% 30.22 in 1.5 mi East 4.6 mph - N/A   Clear
7:04 AM 51.8 °F 48.2 °F 88% 30.23 in 3.0 mi East 4.6 mph - N/A   Clear
7:10 AM 51.8 °F 48.2 °F 88% 30.23 in 1.8 mi ENE 3.5 mph - N/A   Partly Cloudy
7:22 AM 51.8 °F 48.2 °F 88% 30.23 in 3.0 mi East 3.5 mph - N/A   Partly Cloudy
7:27 AM 51.8 °F 50.0 °F 94% 30.23 in 1.8 mi East 3.5 mph - N/A   Partly Cloudy
7:47 AM 55.4 °F 51.8 °F 88% 30.24 in 3.0 mi ESE 3.5 mph - N/A   Clear
7:53 AM 55.0 °F 53.1 °F 93% 30.24 in 4.0 mi East 3.5 mph - N/A   Clear
8:53 AM 63.0 °F 59.0 °F 87% 30.25 in 10.0 mi Calm Calm - N/A   Clear
9:53 AM 70.0 °F 55.9 °F 61% 30.26 in 10.0 mi SSW 4.6 mph - N/A   Clear
10:53 AM 70.0 °F 54.0 °F 57% 30.26 in 10.0 mi SSW 6.9 mph - N/A   Partly Cloudy
11:53 AM 73.0 °F 55.0 °F 53% 30.25 in 10.0 mi SSW 8.1 mph - N/A   Overcast
12:53 PM 72.0 °F 55.0 °F 55% 30.23 in 10.0 mi SSW 8.1 mph - N/A   Clear
1:53 PM 73.0 °F 55.0 °F 53% 30.20 in 10.0 mi SSW 9.2 mph - N/A   Clear
2:53 PM 73.9 °F 54.0 °F 50% 30.19 in 10.0 mi South 9.2 mph - N/A   Clear
3:53 PM 73.0 °F 55.9 °F 55% 30.18 in 10.0 mi South 10.4 mph - N/A   Clear
4:53 PM 72.0 °F 55.9 °F 57% 30.17 in 10.0 mi South 11.5 mph - N/A   Clear
5:53 PM 68.0 °F 57.0 °F 68% 30.18 in 10.0 mi SSE 5.8 mph - N/A   Clear
6:53 PM 62.1 °F 55.9 °F 80% 30.20 in 10.0 mi SSE 5.8 mph - N/A   Clear
7:53 PM 60.1 °F 55.9 °F 86% 30.22 in 10.0 mi SE 5.8 mph - N/A   Clear
8:53 PM 61.0 °F 57.0 °F 87% 30.23 in 10.0 mi SSE 6.9 mph - N/A   Clear
9:53 PM 60.1 °F 57.0 °F 90% 30.25 in 10.0 mi SE 3.5 mph - N/A   Clear
10:53 PM 59.0 °F 55.9 °F 90% 30.25 in 10.0 mi ESE 4.6 mph - N/A   Clear
11:21 PM 55.4 °F 53.6 °F 94% 30.24 in 1.5 mi Calm Calm - N/A   Clear
11:50 PM 55.4 °F 53.6 °F 94% 30.25 in 1.0 mi Calm Calm - N/A   Mist
11:53 PM 55.0 °F 53.1 °F 93% 30.25 in 0.5 mi Calm Calm - N/A Fog Fog